User: anonymous   Login
Location: Unspecified
(0.0000°N, 0.0000°E)
Time: 09:27:27
(UTC+00:00)
Language:

LAPAN-TUBSAT - Orbit

View from above orbital plane
View from above orbital plane
View from above satellite
View from above satellite

Ground track
Ground track

The orbit data is extracted from the following two-line orbital elements,

1 29709U 07001A   18264.84766600 +.00000034 +00000-0 +10796-4 0  9997
2 29709 097.7653 229.2955 0013753 028.6359 331.5613 14.82140370632364
Epoch (UTC): 21 September 2018 20:20:38
Eccentricity: 0.0013753
inclination: 97.7653°
perigee height: 613 km
apogee height: 632 km
right ascension of ascending node: 229.2955°
argument of perigee: 28.6359°
revolutions per day: 14.82140370
mean anomaly at epoch: 331.5613°
orbit number at epoch: 63236

The dashed part of the orbit path shows where the satellite is in the earth's shadow,  

DLR